This demonstration page uses our WeatherBlox Daily Observations layout. Learn more.

Left ArrowRight Arrow

Hourly Observations for March 26, 2019

Temp ( °F °C ) Dew Point ( °F °C ) Humidity (%) Winds ( mph kmh ) Pressure ( in mb ) Visibility ( mi km ) Precip ( " mm )
12:52 am 00:52 Partly Cloudy 42 5.6 35 1.7 76 76 SE 6 9 30.37 1028 10 16 0.00 0.00
1:52 am 01:52 Cloudy 42 5.6 35 1.7 76 76 SE 7 11 30.37 1028 10 16 0.00 0.00
2:52 am 02:52 Cloudy 42 5.6 35 1.7 76 76 SE 5 7 30.37 1029 10 16 0.00 0.00
3:52 am 03:52 Cloudy 42 5.6 35 1.7 76 76 SE 6 9 30.37 1028 10 16 0.00 0.00
4:52 am 04:52 Cloudy 42 5.6 34 1.1 73 73 SE 7 11 30.36 1028 10 16 0.00 0.00
5:52 am 05:52 Cloudy 42 5.6 34 1.1 73 73 SE 6 9 30.37 1028 10 16 0.00 0.00
6:52 am 06:52 Cloudy 42 5.6 34 1.1 73 73 SSE 7 11 30.37 1029 10 16 0.00 0.00
7:52 am 07:52 Cloudy 42 5.6 34 1.1 73 73 SSE 8 13 30.38 1029 10 16 0.00 0.00
8:52 am 08:52 Cloudy 42 5.6 35 1.7 76 76 SSE 10 17 30.39 1029 10 16 0.00 0.00
9:52 am 09:52 Cloudy 43 6.1 36 2.2 76 76 SSE 9 15 30.39 1029 9 14 0.00 0.00
10:52 am 10:52 Cloudy 45 7.2 36 2.2 71 71 SSE 12 19 30.38 1029 10 16 0.00 0.00
11:52 am 11:52 Mostly Cloudy 49 9.4 37 2.8 64 64 SSE 14 22 30.36 1028 10 16 0.00 0.00
12:52 pm 12:52 Partly Cloudy 53 11.7 38 3.3 57 57 S 16 26 30.33 1027 10 16 0.00 0.00
1:52 pm 13:52 Mostly Sunny 56 13.3 39 3.9 53 53 SSE 20 31 30.30 1026 10 16 0.00 0.00
2:52 pm 14:52 Mostly Sunny 59 15 39 3.9 48 48 S 18 30 30.27 1025 10 16 0.00 0.00
3:52 pm 15:52 Partly Cloudy 60 15.6 41 5 50 50 S 20 31 30.24 1024 10 16 0.00 0.00
4:52 pm 16:52 Mostly Cloudy 61 16.1 42 5.6 50 50 S 21 33 30.21 1023 10 16 0.00 0.00
5:52 pm 17:52 Partly Cloudy 62 16.7 42 5.6 48 48 SSE 21 33 30.18 1022 10 16 0.00 0.00
6:52 pm 18:52 Partly Cloudy 61 16.1 42 5.6 50 50 S 18 30 30.16 1021 10 16 0.00 0.00
7:52 pm 19:52 Mostly Cloudy 58 14.4 43 6.1 58 58 S 12 19 30.15 1021 10 16 0.00 0.00
8:52 pm 20:52 Mostly Cloudy 55 12.8 42 5.6 62 62 SSE 14 22 30.16 1021 10 16 0.00 0.00
9:52 pm 21:52 Mostly Clear 55 12.8 41 5 59 59 SSE 14 22 30.17 1022 10 16 0.00 0.00
10:52 pm 22:52 Mostly Clear 54 12.2 41 5 62 62 S 16 26 30.15 1021 10 16 0.00 0.00
11:52 pm 23:52 Cloudy 54 12.2 42 5.6 64 64 S 17 28 30.14 1021 10 16 0.00 0.00

Powered by AerisWeather